PBD6969 UUEE-URWW

Flight info

Callsign PBD6969
Flight time 1h 30m
Altitude 35000
Route TOGMO3J TOGMO M56 ABAGI W21 NATIT NATIT2G
Aircraft B738/M-SDE2E3FGHIRWXY/LB1

Departure

Time 2026-05-06 11:14
Airport Sheremetyevo International Airport (UUEE)

Arrival

Time 2026-05-06 12:44
Airport Volgograd International Airport (URWW)
Time Latitude Longitude Altitude Speed Heading
2026-05-06 10:54 55.97795 37.41814 638 ft 0 kts 345°
2026-05-06 11:06 55.97790 37.41817 641 ft 4 kts 345°
2026-05-06 11:07 55.97764 37.41828 639 ft 4 kts 347°
2026-05-06 11:07 55.97740 37.41836 640 ft 2 kts 358°
2026-05-06 11:07 55.97729 37.41834 643 ft 2 kts 34°
2026-05-06 11:07 55.97721 37.41819 638 ft 2 kts 68°
2026-05-06 11:08 55.97718 37.41800 642 ft 2 kts 73°
2026-05-06 11:08 55.97717 37.41799 642 ft 0 kts 73°
2026-05-06 11:09 55.97719 37.41811 638 ft 3 kts 77°
2026-05-06 11:09 55.97727 37.41873 638 ft 8 kts 76°
2026-05-06 11:10 55.97750 37.42024 644 ft 17 kts 74°
2026-05-06 11:10 55.97787 37.42274 641 ft 23 kts 75°
2026-05-06 11:10 55.97837 37.42533 642 ft 22 kts 51°
2026-05-06 11:10 55.97897 37.42776 644 ft 21 kts 75°
2026-05-06 11:11 55.97935 37.43029 647 ft 21 kts 74°
2026-05-06 11:11 55.97972 37.43275 641 ft 20 kts 73°
2026-05-06 11:11 55.97972 37.43517 638 ft 20 kts 81°
2026-05-06 11:11 55.97922 37.43730 640 ft 19 kts 98°
2026-05-06 11:12 55.97947 37.43955 643 ft 18 kts 89°
2026-05-06 11:12 55.97849 37.44065 639 ft 18 kts 171°
2026-05-06 11:12 55.97770 37.43940 639 ft 17 kts 255°
2026-05-06 11:12 55.97766 37.43912 640 ft 0 kts 256°
2026-05-06 11:13 55.97765 37.43906 640 ft 4 kts 255°
2026-05-06 11:13 55.97702 37.43491 640 ft 71 kts 255°
2026-05-06 11:13 55.97514 37.42231 641 ft 136 kts 255°
2026-05-06 11:13 55.97239 37.40362 959 ft 165 kts 255°
2026-05-06 11:14 55.96922 37.38329 1704 ft 172 kts 256°
2026-05-06 11:14 55.96242 37.36603 2680 ft 180 kts 213°
2026-05-06 11:14 55.94991 37.35767 3222 ft 204 kts 210°
2026-05-06 11:14 55.93971 37.33978 3611 ft 211 kts 247°
2026-05-06 11:15 55.93335 37.31596 4390 ft 215 kts 244°
2026-05-06 11:15 55.92615 37.29216 5291 ft 217 kts 244°
2026-05-06 11:15 55.91886 37.26878 6206 ft 216 kts 244°
2026-05-06 11:15 55.91151 37.24533 6706 ft 217 kts 244°
2026-05-06 11:16 55.90426 37.22231 6994 ft 214 kts 244°
2026-05-06 11:16 55.89680 37.19865 6981 ft 221 kts 244°
2026-05-06 11:16 55.88821 37.17580 7005 ft 230 kts 225°
2026-05-06 11:16 55.87279 37.16350 7193 ft 262 kts 196°
2026-05-06 11:17 55.85434 37.16029 7788 ft 276 kts 188°
2026-05-06 11:17 55.83481 37.15956 8647 ft 278 kts 187°
2026-05-06 11:17 55.81565 37.15929 9524 ft 280 kts 187°
2026-05-06 11:17 55.79609 37.15897 10281 ft 284 kts 187°
2026-05-06 11:18 55.77565 37.15841 10626 ft 303 kts 187°
2026-05-06 11:18 55.75418 37.15772 11198 ft 313 kts 186°
2026-05-06 11:18 55.73226 37.15697 11929 ft 317 kts 186°
2026-05-06 11:18 55.71011 37.15617 12694 ft 321 kts 186°
2026-05-06 11:19 55.68763 37.15531 13455 ft 325 kts 186°
2026-05-06 11:19 55.66485 37.15438 14141 ft 330 kts 186°
2026-05-06 11:19 55.64181 37.15342 14701 ft 333 kts 186°
2026-05-06 11:19 55.61866 37.15247 14877 ft 334 kts 186°
2026-05-06 11:20 55.59537 37.15150 14884 ft 336 kts 186°
2026-05-06 11:20 55.57166 37.15050 15259 ft 343 kts 186°
2026-05-06 11:20 55.54794 37.14950 16087 ft 341 kts 186°
2026-05-06 11:20 55.52410 37.14849 16803 ft 344 kts 186°
2026-05-06 11:21 55.50007 37.14746 17441 ft 348 kts 185°
2026-05-06 11:21 55.47568 37.14640 18067 ft 352 kts 185°
2026-05-06 11:21 55.45102 37.14812 18653 ft 359 kts 175°
2026-05-06 11:21 55.42651 37.15867 19254 ft 366 kts 164°
2026-05-06 11:22 55.40316 37.17761 19829 ft 373 kts 154°
2026-05-06 11:22 55.38053 37.20027 20389 ft 376 kts 153°
2026-05-06 11:22 55.35778 37.22373 20866 ft 381 kts 153°
2026-05-06 11:22 55.33492 37.24717 20860 ft 380 kts 153°
2026-05-06 11:23 55.31208 37.27027 20878 ft 379 kts 153°
2026-05-06 11:23 55.28918 37.29309 20882 ft 380 kts 154°
2026-05-06 11:23 55.26610 37.31592 20889 ft 381 kts 154°
2026-05-06 11:23 55.24318 37.33881 20885 ft 382 kts 150°
2026-05-06 11:24 55.22208 37.36787 20883 ft 386 kts 137°
2026-05-06 11:24 55.20459 37.40377 20882 ft 389 kts 126°
2026-05-06 11:24 55.19123 37.44435 20907 ft 390 kts 119°
2026-05-06 11:24 55.17870 37.48719 20893 ft 391 kts 118°
2026-05-06 11:25 55.16650 37.52895 20886 ft 390 kts 119°
2026-05-06 11:25 55.15391 37.57092 20877 ft 390 kts 120°
2026-05-06 11:25 55.14118 37.61268 20895 ft 389 kts 119°
2026-05-06 11:25 55.13050 37.65617 20889 ft 390 kts 109°
2026-05-06 11:26 55.12432 37.70224 20890 ft 390 kts 100°
2026-05-06 11:26 55.12011 37.74903 20889 ft 390 kts 99°
2026-05-06 11:26 55.11585 37.79566 20885 ft 390 kts 100°
2026-05-06 11:26 55.11132 37.84258 20895 ft 390 kts 101°
2026-05-06 11:27 55.10734 37.87308 20876 ft 390 kts 109°
2026-05-06 11:27 55.09660 37.91638 20897 ft 388 kts 121°
2026-05-06 11:27 55.08127 37.95483 20869 ft 385 kts 134°
2026-05-06 11:27 55.06288 37.98866 20893 ft 384 kts 137°
2026-05-06 11:28 55.04407 38.02181 20885 ft 384 kts 137°
2026-05-06 11:28 55.02525 38.05483 20880 ft 384 kts 137°
2026-05-06 11:28 55.00646 38.08799 20876 ft 384 kts 137°
2026-05-06 11:28 54.98780 38.12114 20870 ft 385 kts 136°
2026-05-06 11:29 54.96909 38.15453 20877 ft 384 kts 136°
2026-05-06 11:29 54.95044 38.18789 20874 ft 384 kts 136°
2026-05-06 11:29 54.93180 38.22126 20876 ft 384 kts 136°
2026-05-06 11:29 54.91318 38.25454 20870 ft 385 kts 136°
2026-05-06 11:30 54.89422 38.28833 20969 ft 398 kts 136°
2026-05-06 11:30 54.87452 38.32336 21076 ft 413 kts 136°
2026-05-06 11:30 54.85451 38.36047 21175 ft 429 kts 131°
2026-05-06 11:30 54.83713 38.40362 21260 ft 444 kts 121°
2026-05-06 11:31 54.82212 38.45130 21383 ft 456 kts 119°
2026-05-06 11:31 54.80710 38.50018 21677 ft 462 kts 120°
2026-05-06 11:31 54.79159 38.54923 22149 ft 463 kts 120°
2026-05-06 11:31 54.77459 38.59651 22609 ft 464 kts 128°
2026-05-06 11:32 54.75359 38.63791 23027 ft 464 kts 137°
2026-05-06 11:32 54.72904 38.67396 23433 ft 464 kts 147°
2026-05-06 11:32 54.70129 38.70400 23780 ft 465 kts 152°
2026-05-06 11:32 54.67333 38.73231 24117 ft 467 kts 152°
2026-05-06 11:33 54.64563 38.76024 24447 ft 469 kts 152°
2026-05-06 11:33 54.61735 38.78904 24655 ft 475 kts 151°
2026-05-06 11:33 54.58898 38.81884 24931 ft 478 kts 150°
2026-05-06 11:33 54.56050 38.84833 25368 ft 477 kts 151°
2026-05-06 11:34 54.53204 38.87753 25752 ft 477 kts 151°
2026-05-06 11:34 54.50342 38.90689 26028 ft 480 kts 150°
2026-05-06 11:34 54.47471 38.93643 26292 ft 483 kts 150°
2026-05-06 11:34 54.44576 38.96625 26542 ft 486 kts 150°
2026-05-06 11:35 54.41774 38.99913 26697 ft 492 kts 140°
2026-05-06 11:35 54.39359 39.04057 27045 ft 492 kts 131°
2026-05-06 11:35 54.37335 39.08791 27470 ft 491 kts 121°
2026-05-06 11:35 54.35874 39.14085 27937 ft 489 kts 111°
2026-05-06 11:36 54.34707 39.19453 28396 ft 487 kts 110°
2026-05-06 11:36 54.33466 39.24946 28806 ft 486 kts 111°
2026-05-06 11:36 54.32194 39.30313 29160 ft 487 kts 112°
2026-05-06 11:36 54.30899 39.35645 29543 ft 486 kts 112°
2026-05-06 11:37 54.29589 39.40988 29984 ft 484 kts 112°
2026-05-06 11:37 54.28285 39.46290 30359 ft 482 kts 112°
2026-05-06 11:37 54.26985 39.51577 30695 ft 482 kts 112°
2026-05-06 11:37 54.25689 39.56856 31017 ft 481 kts 112°
2026-05-06 11:38 54.24395 39.62124 31340 ft 480 kts 112°
2026-05-06 11:38 54.23100 39.67392 31667 ft 479 kts 113°
2026-05-06 11:38 54.21809 39.72629 32029 ft 478 kts 113°
2026-05-06 11:38 54.20518 39.77853 32369 ft 477 kts 113°
2026-05-06 11:39 54.19229 39.83060 32687 ft 476 kts 113°
2026-05-06 11:39 54.17938 39.88260 32983 ft 475 kts 113°
2026-05-06 11:39 54.16648 39.93448 33292 ft 475 kts 113°
2026-05-06 11:39 54.15374 39.98557 33624 ft 474 kts 113°
2026-05-06 11:40 54.14085 40.03719 33916 ft 473 kts 113°
2026-05-06 11:40 54.12779 40.08930 34177 ft 472 kts 113°
2026-05-06 11:40 54.11533 40.14040 34371 ft 472 kts 110°
2026-05-06 11:40 54.10508 40.19366 34588 ft 472 kts 107°
2026-05-06 11:41 54.09590 40.24722 34846 ft 471 kts 106°
2026-05-06 11:41 54.07806 40.35513 34858 ft 473 kts 106°
2026-05-06 11:42 54.05979 40.46246 34848 ft 471 kts 107°
2026-05-06 11:42 54.04113 40.56897 34861 ft 469 kts 107°
2026-05-06 11:43 54.02220 40.67589 34863 ft 474 kts 107°
2026-05-06 11:43 54.00318 40.78278 34852 ft 471 kts 107°
2026-05-06 11:44 53.97469 40.94195 34851 ft 468 kts 107°
2026-05-06 11:44 53.95570 41.04739 34854 ft 466 kts 107°
2026-05-06 11:45 53.93815 41.15237 34864 ft 465 kts 105°
2026-05-06 11:45 53.92104 41.25844 34859 ft 465 kts 105°
2026-05-06 11:46 53.90370 41.36433 34865 ft 466 kts 105°
2026-05-06 11:46 53.88613 41.47004 34865 ft 468 kts 106°
2026-05-06 11:47 53.86830 41.57646 34859 ft 469 kts 106°
2026-05-06 11:47 53.85039 41.68287 34863 ft 470 kts 106°
2026-05-06 11:48 53.83234 41.78931 34861 ft 471 kts 106°
2026-05-06 11:48 53.81409 41.89572 34864 ft 471 kts 106°
2026-05-06 11:49 53.79574 42.00204 34861 ft 471 kts 106°
2026-05-06 11:49 53.78531 42.05448 34839 ft 471 kts 117°
2026-05-06 11:49 53.76757 42.10061 34894 ft 468 kts 130°
2026-05-06 11:50 53.74506 42.14028 34862 ft 467 kts 141°
2026-05-06 11:50 53.71945 42.17133 34861 ft 465 kts 152°
2026-05-06 11:50 53.66152 42.22260 34861 ft 465 kts 148°
2026-05-06 11:51 53.63742 42.25880 34883 ft 466 kts 128°
2026-05-06 11:51 53.62066 42.30540 34853 ft 467 kts 111°
2026-05-06 11:51 53.60241 42.40951 34875 ft 467 kts 105°
2026-05-06 11:52 53.58465 42.51452 34866 ft 468 kts 107°
2026-05-06 11:52 53.55639 42.61148 34882 ft 464 kts 136°
2026-05-06 11:53 53.53027 42.64293 34872 ft 461 kts 156°
2026-05-06 11:53 53.50139 42.66614 34856 ft 462 kts 146°
2026-05-06 11:53 53.47792 42.70266 34909 ft 461 kts 129°
2026-05-06 11:53 53.45897 42.74634 34872 ft 463 kts 124°
2026-05-06 11:54 53.42087 42.83338 34867 ft 464 kts 134°
2026-05-06 11:54 53.36983 42.89856 34886 ft 463 kts 152°
2026-05-06 11:55 53.31145 42.94274 34888 ft 463 kts 158°
2026-05-06 11:55 53.25161 42.98293 34877 ft 464 kts 158°
2026-05-06 11:56 53.19210 43.02454 34875 ft 463 kts 157°
2026-05-06 11:56 53.13282 43.06667 34882 ft 463 kts 156°
2026-05-06 11:57 53.07389 43.10997 34876 ft 463 kts 156°
2026-05-06 11:57 53.01520 43.15391 34882 ft 462 kts 156°
2026-05-06 11:58 52.95658 43.19758 34883 ft 462 kts 156°
2026-05-06 11:58 52.89788 43.24101 34881 ft 461 kts 156°
2026-05-06 11:59 52.83966 43.28387 34885 ft 461 kts 156°
2026-05-06 11:59 52.78107 43.32686 34891 ft 461 kts 156°
2026-05-06 12:00 52.72251 43.36972 34889 ft 460 kts 156°
2026-05-06 12:00 52.66393 43.41246 34890 ft 460 kts 156°
2026-05-06 12:01 52.60537 43.45507 34885 ft 460 kts 156°
2026-05-06 12:01 52.54683 43.49754 34890 ft 459 kts 156°
2026-05-06 12:02 52.48838 43.53981 34906 ft 459 kts 156°
2026-05-06 12:02 52.42984 43.58204 34896 ft 459 kts 156°
2026-05-06 12:03 52.37134 43.62410 34898 ft 459 kts 156°
2026-05-06 12:03 52.31291 43.66600 34897 ft 458 kts 156°
2026-05-06 12:04 52.25502 43.70739 34897 ft 458 kts 156°
2026-05-06 12:04 52.19612 43.74938 34898 ft 458 kts 156°
2026-05-06 12:05 52.13773 43.79089 34899 ft 458 kts 156°
2026-05-06 12:05 52.07961 43.83208 34901 ft 457 kts 156°
2026-05-06 12:06 52.02133 43.87327 34904 ft 457 kts 156°
2026-05-06 12:06 51.96303 43.91437 34902 ft 457 kts 156°
2026-05-06 12:07 51.90480 43.95529 34897 ft 456 kts 156°
2026-05-06 12:07 51.84648 43.99616 34906 ft 456 kts 156°
2026-05-06 12:08 51.78859 44.03662 34901 ft 456 kts 156°
2026-05-06 12:08 51.73041 44.07716 34902 ft 455 kts 156°
2026-05-06 12:09 51.67224 44.11759 34897 ft 455 kts 156°
2026-05-06 12:09 51.61407 44.15790 34899 ft 455 kts 156°
2026-05-06 12:10 51.55601 44.19802 34901 ft 455 kts 156°
2026-05-06 12:10 51.49782 44.23813 34890 ft 455 kts 156°
2026-05-06 12:11 51.43970 44.27807 34904 ft 454 kts 156°
2026-05-06 12:11 51.38161 44.31788 34896 ft 454 kts 156°
2026-05-06 12:12 51.32384 44.35736 34896 ft 454 kts 156°
2026-05-06 12:12 51.26536 44.39724 34898 ft 454 kts 156°
2026-05-06 12:13 51.20733 44.43673 34906 ft 454 kts 156°
2026-05-06 12:13 51.14692 44.46439 34903 ft 456 kts 172°
2026-05-06 12:14 51.08350 44.46412 34913 ft 457 kts 182°
2026-05-06 12:14 51.01995 44.45714 34904 ft 457 kts 182°
2026-05-06 12:15 50.95638 44.45044 34901 ft 458 kts 182°
2026-05-06 12:15 50.90350 44.44530 34909 ft 458 kts 182°
2026-05-06 12:16 50.83979 44.43935 34902 ft 458 kts 182°
2026-05-06 12:16 50.77611 44.43347 34912 ft 459 kts 182°
2026-05-06 12:17 50.71235 44.42759 34905 ft 459 kts 182°
2026-05-06 12:17 50.64932 44.42177 34915 ft 459 kts 182°
2026-05-06 12:18 50.58521 44.41587 34909 ft 459 kts 182°
2026-05-06 12:18 50.52131 44.41000 34835 ft 460 kts 182°
2026-05-06 12:19 50.48960 44.40710 34253 ft 463 kts 181°
2026-05-06 12:19 50.45713 44.40413 33551 ft 461 kts 181°
2026-05-06 12:19 50.42528 44.40121 32768 ft 462 kts 181°
2026-05-06 12:19 50.39299 44.39826 32028 ft 461 kts 182°
2026-05-06 12:20 50.36099 44.39533 31280 ft 461 kts 182°
2026-05-06 12:20 50.32884 44.39240 30521 ft 462 kts 182°
2026-05-06 12:20 50.29717 44.38952 29714 ft 463 kts 182°
2026-05-06 12:20 50.26447 44.38654 28782 ft 464 kts 182°
2026-05-06 12:21 50.23223 44.38361 27911 ft 464 kts 181°
2026-05-06 12:21 50.20041 44.38071 27026 ft 464 kts 181°
2026-05-06 12:21 50.16819 44.37779 26082 ft 466 kts 181°
2026-05-06 12:21 50.13576 44.37485 25390 ft 463 kts 181°
2026-05-06 12:22 50.10377 44.37194 24733 ft 459 kts 181°
2026-05-06 12:22 50.07204 44.36907 24069 ft 455 kts 181°
2026-05-06 12:22 50.04045 44.36622 23400 ft 452 kts 180°
2026-05-06 12:22 50.00916 44.36341 22638 ft 449 kts 180°
2026-05-06 12:23 49.97806 44.36062 21963 ft 445 kts 180°
2026-05-06 12:23 49.94731 44.35786 21316 ft 440 kts 180°
2026-05-06 12:23 49.91675 44.35513 20644 ft 437 kts 180°
2026-05-06 12:23 49.88654 44.35243 20008 ft 433 kts 181°
2026-05-06 12:24 49.85663 44.34976 19388 ft 430 kts 180°
2026-05-06 12:24 49.82676 44.34710 18748 ft 428 kts 180°
2026-05-06 12:24 49.79710 44.34447 18097 ft 426 kts 181°
2026-05-06 12:24 49.76781 44.34187 17395 ft 424 kts 181°
2026-05-06 12:25 49.73846 44.33926 16745 ft 421 kts 181°
2026-05-06 12:25 49.70932 44.33667 16108 ft 418 kts 181°
2026-05-06 12:25 49.68040 44.33410 15479 ft 415 kts 181°
2026-05-06 12:25 49.65170 44.33155 14861 ft 412 kts 181°
2026-05-06 12:26 49.62362 44.32907 14267 ft 409 kts 182°
2026-05-06 12:26 49.59531 44.32657 13655 ft 406 kts 182°
2026-05-06 12:26 49.56713 44.32405 12973 ft 405 kts 183°
2026-05-06 12:26 49.53934 44.31994 12615 ft 397 kts 186°
2026-05-06 12:27 49.51196 44.31462 12000 ft 395 kts 187°
2026-05-06 12:27 49.48487 44.30893 11399 ft 392 kts 187°
2026-05-06 12:27 49.45847 44.30336 11143 ft 381 kts 187°
2026-05-06 12:27 49.43258 44.29801 10957 ft 369 kts 187°
2026-05-06 12:28 49.40749 44.29296 10799 ft 357 kts 187°
2026-05-06 12:28 49.38331 44.28819 10642 ft 342 kts 187°
2026-05-06 12:28 49.36038 44.28370 10502 ft 324 kts 187°
2026-05-06 12:28 49.33856 44.27944 10357 ft 308 kts 187°
2026-05-06 12:29 49.31780 44.27541 10218 ft 295 kts 187°
2026-05-06 12:29 49.29774 44.27153 10099 ft 287 kts 187°
2026-05-06 12:29 49.27818 44.26774 9988 ft 282 kts 187°
2026-05-06 12:29 49.25841 44.26390 9836 ft 292 kts 187°
2026-05-06 12:30 49.23804 44.25995 9522 ft 294 kts 187°
2026-05-06 12:30 49.21780 44.25602 9207 ft 292 kts 187°
2026-05-06 12:30 49.19766 44.25211 8905 ft 292 kts 187°
2026-05-06 12:30 49.17757 44.24823 8613 ft 291 kts 187°
2026-05-06 12:31 49.15753 44.24435 8307 ft 290 kts 187°
2026-05-06 12:31 49.13780 44.24053 8020 ft 289 kts 187°
2026-05-06 12:31 49.11785 44.23667 7722 ft 289 kts 187°
2026-05-06 12:31 49.09813 44.23286 7424 ft 288 kts 187°
2026-05-06 12:32 49.07803 44.22900 7136 ft 288 kts 187°
2026-05-06 12:32 49.05823 44.22520 6835 ft 284 kts 187°
2026-05-06 12:32 49.03905 44.21958 6526 ft 278 kts 201°
2026-05-06 12:32 49.02155 44.20757 6285 ft 275 kts 206°
2026-05-06 12:33 49.00452 44.19499 6139 ft 266 kts 207°
2026-05-06 12:33 48.98827 44.18305 6048 ft 253 kts 206°
2026-05-06 12:33 48.97282 44.17181 5926 ft 239 kts 206°
2026-05-06 12:33 48.95830 44.16133 5787 ft 224 kts 206°
2026-05-06 12:34 48.94444 44.15140 5457 ft 220 kts 206°
2026-05-06 12:34 48.93058 44.14148 5061 ft 219 kts 206°
2026-05-06 12:34 48.91680 44.13167 4658 ft 218 kts 206°
2026-05-06 12:34 48.90320 44.12159 4299 ft 217 kts 209°
2026-05-06 12:35 48.88996 44.11167 4136 ft 210 kts 206°
2026-05-06 12:35 48.87659 44.10265 3931 ft 208 kts 204°
2026-05-06 12:35 48.86324 44.09407 3702 ft 208 kts 204°
2026-05-06 12:35 48.85014 44.08559 3513 ft 206 kts 204°
2026-05-06 12:36 48.83694 44.07696 3320 ft 207 kts 204°
2026-05-06 12:36 48.82381 44.06834 3130 ft 209 kts 204°
2026-05-06 12:36 48.81025 44.05938 2912 ft 211 kts 204°
2026-05-06 12:36 48.79622 44.05529 2778 ft 205 kts 169°
2026-05-06 12:37 48.78277 44.06068 2730 ft 196 kts 163°
2026-05-06 12:37 48.76972 44.06598 2712 ft 193 kts 164°
2026-05-06 12:37 48.75674 44.07125 2627 ft 190 kts 164°
2026-05-06 12:37 48.74447 44.07618 2575 ft 174 kts 164°
2026-05-06 12:38 48.73308 44.08082 2506 ft 168 kts 161°
2026-05-06 12:38 48.72371 44.09047 2501 ft 162 kts 127°
2026-05-06 12:38 48.71719 44.10492 2458 ft 164 kts 104°
2026-05-06 12:38 48.71804 44.12081 2526 ft 155 kts 68°
2026-05-06 12:39 48.72046 44.13721 2515 ft 158 kts 72°
2026-05-06 12:39 48.72368 44.15292 2494 ft 156 kts 67°
2026-05-06 12:39 48.72734 44.16780 2453 ft 146 kts 62°
2026-05-06 12:39 48.73178 44.18224 2419 ft 157 kts 60°
2026-05-06 12:40 48.73652 44.19712 2207 ft 155 kts 61°
2026-05-06 12:40 48.74117 44.21186 1976 ft 154 kts 59°
2026-05-06 12:40 48.74572 44.22628 1770 ft 151 kts 60°
2026-05-06 12:40 48.75020 44.24047 1589 ft 149 kts 60°
2026-05-06 12:41 48.75472 44.25484 1392 ft 153 kts 60°
2026-05-06 12:41 48.75936 44.26930 1162 ft 153 kts 63°
2026-05-06 12:41 48.76385 44.28371 971 ft 150 kts 64°
2026-05-06 12:41 48.76842 44.29800 752 ft 147 kts 62°
2026-05-06 12:42 48.77254 44.31153 526 ft 137 kts 67°
2026-05-06 12:42 48.77654 44.32390 419 ft 121 kts 65°
2026-05-06 12:42 48.78029 44.33575 475 ft 150 kts 64°
2026-05-06 12:42 48.78501 44.35081 1069 ft 172 kts 63°
2026-05-06 12:43 48.79029 44.36774 1618 ft 174 kts 63°
2026-05-06 12:43 48.79536 44.38382 1758 ft 158 kts 61°
2026-05-06 12:43 48.80068 44.39938 2109 ft 181 kts 60°
2026-05-06 12:43 48.80770 44.41722 2075 ft 203 kts 48°
2026-05-06 12:44 48.81889 44.42960 1768 ft 200 kts 20°
2026-05-06 12:44 48.83241 44.43213 1378 ft 197 kts 353°
2026-05-06 12:44 48.84540 44.42464 822 ft 205 kts 330°
2026-05-06 12:44 48.85711 44.41511 475 ft 0 kts 347°